Find Starlink 5732

NORAD ID: 55572 Int'l Des: 2023-020 Owner: SPXS Country: US Constellation: starlink operational
LEOCIRCULAR

現在のビュー

3D地球を読み込み中...

About Starlink 5732

Starlink 5732 (NORAD 55572) is a starlink constellation satellite (v1.5) launched Feb 12, 2023 by SPXS of US. It operates in LEO, CIRCULAR orbit with a mass of 305.00 kg.

Starlink 5732について

説明を読み込み中...

次回通過

Passes for default location (London). Set your location on the main map for personalized predictions.

高度履歴

Loading altitude history...

軌道要素

1 55572U 23020D 26171.02154404 .00000273 00000-0 19439-4 0 9990
2 55572 43.0015 150.6531 0001210 261.3741 98.6973 15.27578087184520
Epoch: Jun 20, 2026 • Age: 21 hours

現在のステータス

高度 485.7 km
速度 7.63 km/s
衛星直下点 37.46°N, 26.38°W
打ち上げ日 Feb 12, 2023
運用期間 3.3 years
タイプ internet

技術仕様

分類 Payload
質量 305.00 kg
乾燥質量 290.00 kg
総質量 305.00 kg
長さ 0.20 m
直径 2.80 m
スパン 9.00 m
形状 Box + pan
製造者 SPXS
バスタイプ Starlink
フェーズステータス In Orbit
所有者/国 SPXS/US

Most Searched